TimeMST,TemperatureF,Dew PointF,Humidity,Sea Level PressureIn,VisibilityMPH,Wind Direction,Wind SpeedMPH,Gust SpeedMPH,PrecipitationIn,Events,Conditions,WindDirDegrees,DateUTC
12:53 AM,3.9,-0.9,80,30.29,9.0,East,6.9,-,0.00,,Overcast,80,2013-01-22 07:53:00
1:53 AM,3.9,-0.0,84,30.29,10.0,ENE,6.9,-,N/A,,Overcast,70,2013-01-22 08:53:00
2:53 AM,5.0,1.0,84,30.27,10.0,East,8.1,-,N/A,,Overcast,80,2013-01-22 09:53:00
3:53 AM,6.1,1.0,80,30.27,10.0,ENE,8.1,-,N/A,,Overcast,70,2013-01-22 10:53:00
4:53 AM,6.1,1.9,83,30.26,10.0,ENE,5.8,-,N/A,,Overcast,70,2013-01-22 11:53:00
5:53 AM,7.0,1.9,80,30.26,10.0,ENE,4.6,-,N/A,,Overcast,60,2013-01-22 12:53:00
6:53 AM,7.0,3.0,84,30.25,10.0,NE,4.6,-,N/A,,Overcast,50,2013-01-22 13:53:00
7:53 AM,8.1,3.0,80,30.23,10.0,Calm,Calm,-,N/A,,Overcast,0,2013-01-22 14:53:00
8:53 AM,9.0,3.0,77,30.24,10.0,Calm,Calm,-,N/A,,Overcast,0,2013-01-22 15:53:00
9:53 AM,9.0,5.0,84,30.24,10.0,Calm,Calm,-,N/A,,Mostly Cloudy,0,2013-01-22 16:53:00
10:53 AM,10.9,5.0,77,30.24,10.0,West,3.5,-,N/A,,Clear,260,2013-01-22 17:53:00
11:53 AM,12.0,6.1,77,30.24,10.0,WNW,3.5,-,N/A,,Clear,290,2013-01-22 18:53:00
12:53 PM,14.0,8.1,77,30.22,10.0,West,10.4,-,N/A,,Clear,260,2013-01-22 19:53:00
1:53 PM,14.0,8.1,77,30.21,10.0,WSW,8.1,-,N/A,,Clear,240,2013-01-22 20:53:00
2:53 PM,14.0,8.1,77,30.23,10.0,WSW,6.9,-,N/A,,Clear,250,2013-01-22 21:53:00
3:53 PM,14.0,8.1,77,30.24,10.0,WSW,8.1,-,N/A,,Clear,250,2013-01-22 22:53:00
4:53 PM,10.9,6.1,81,30.26,10.0,West,5.8,-,N/A,,Clear,260,2013-01-22 23:53:00
5:53 PM,9.0,5.0,84,30.27,10.0,West,4.6,-,N/A,,Clear,280,2013-01-23 00:53:00
6:53 PM,9.0,5.0,84,30.28,10.0,Calm,Calm,-,N/A,,Clear,0,2013-01-23 01:53:00
7:53 PM,8.1,3.0,80,30.29,10.0,Calm,Calm,-,N/A,,Clear,0,2013-01-23 02:53:00
8:53 PM,3.9,1.0,88,30.31,10.0,Calm,Calm,-,N/A,,Clear,0,2013-01-23 03:53:00
9:53 PM,6.1,1.9,83,30.34,10.0,Calm,Calm,-,N/A,,Clear,0,2013-01-23 04:53:00
10:53 PM,5.0,1.0,84,30.36,10.0,Calm,Calm,-,N/A,,Clear,0,2013-01-23 05:53:00
11:53 PM,10.0,3.0,73,30.36,10.0,North,5.8,-,N/A,,Clear,350,2013-01-23 06:53:00